Temperature
8 8 8 8 8 8 8 9 9 9 9 10 10 10 10 10 10 10 10 10 10 10 11 10 11 11 11 11 11 11 11 11 11 11 11 11 11 10 10 10 10 10 10
7 7 7 7 8 8 8 8 8 8 9 9 9 9 9 10 10 10 10 10 10 10 10 10 10 10 10 10 10 10 10 10 10 10 10 10 10 10 10 10 10 10 10
6 6 7 7 7 7 7 7 8 8 8 8 9 9 9 9 9 9 10 10 10 10 10 10 10 10 10 10 10 10 10 10 10 10 10 10 10 10 10 10 10 10 10
6 6 6 6 6 7 7 7 7 7 7 8 8 8 8 8 9 9 9 9 9 10 10 10 10 10 10 10 10 10 10 10 10 10 9 9 9 9 9 9 9 9 9
5 5 5 6 6 6 6 6 6 6 7 7 7 8 8 8 8 9 9 9 9 9 9 9 9 9 9 9 9 9 9 9 9 9 9 9 9 9 9 9 9 9 9
5 5 5 5 5 5 6 6 6 6 6 6 7 7 7 8 8 8 9 9 9 9 9 9 9 9 9 9 9 9 9 9 9 9 9 9 9 9 9 9 9 9 9
4 4 4 4 5 5 5 5 5 5 6 6 6 6 7 7 7 8 8 8 8 8 8 8 8 9 9 9 9 8 8 8 8 8 8 8 8 8 8 8 8 8 8
4 4 4 4 4 4 4 5 5 5 5 5 5 5 6 6 7 7 7 8 8 8 8 8 8 8 8 8 8 8 8 8 8 8 8 8 8 8 8 8 8 8 8
3 3 3 3 3 4 4 4 4 4 5 5 5 5 5 5 6 6 7 7 7 7 7 7 8 8 8 8 8 8 8 8 7 7 8 8 8 8 8 8 8 8 8
2 2 3 3 3 3 3 3 3 3 4 4 4 5 5 5 5 5 6 6 7 7 7 7 7 7 7 7 7 7 7 7 7 7 7 7 7 7 7 7 7 7 7
2 2 2 2 2 2 3 3 3 3 3 3 4 4 4 4 5 5 5 5 6 6 6 7 7 7 7 7 7 7 7 7 7 7 7 7 7 7 7 7 7 7 7
1 1 1 1 1 2 2 2 2 2 2 3 3 3 4 4 4 4 4 5 5 6 6 6 6 6 6 6 6 6 6 6 6 6 6 6 6 6 7 7 6 6 7
1 1 1 1 1 1 1 1 2 2 2 2 2 3 3 3 3 4 4 4 4 5 5 5 6 6 6 6 6 6 6 6 6 6 6 6 6 6 6 6 6 6 6
0 0 0 0 0 1 1 1 1 1 1 1 1 2 2 3 3 3 3 3 3 4 4 5 5 5 5 5 6 6 6 6 6 5 6 6 6 6 6 6 6 6 6
-1 -0 -0 -0 -0 0 0 0 0 1 1 1 1 1 1 2 2 2 3 3 3 3 3 4 4 4 5 5 5 5 5 5 5 5 5 5 5 5 5 5 5 5 6
-1 -1 -1 -1 -1 -1 -0 -0 -0 -0 -0 0 0 1 1 1 1 2 2 2 2 2 3 3 4 4 4 4 4 4 4 5 5 5 5 5 5 5 5 5 5 5 5
-2 -2 -1 -1 -1 -1 -1 -1 -1 -1 -0 -0 0 0 0 1 1 1 1 2 2 2 2 3 3 3 4 4 4 4 4 4 4 4 4 4 4 4 4 4 4 4 4
-2 -2 -2 -2 -1 -1 -1 -1 -1 -1 -1 -1 -0 -0 -0 -0 0 1 1 1 1 1 2 2 3 3 3 3 3 3 3 3 4 4 3 3 3 4 4 4 4 4 4
-3 -3 -2 -2 -2 -2 -2 -2 -1 -1 -1 -1 -1 -1 -1 -0 -0 -0 0 0 1 1 1 1 2 2 2 2 2 2 3 3 3 3 3 3 3 3 3 3 3 3 3
-3 -3 -3 -3 -3 -3 -2 -2 -2 -2 -2 -2 -1 -1 -1 -1 -1 -1 -0 -0 -0 0 0 1 1 1 1 2 1 2 2 2 2 2 2 2 2 2 2 2 2 2 2
-4 -4 -3 -3 -3 -3 -3 -3 -2 -2 -2 -2 -2 -2 -2 -1 -1 -1 -1 -1 -1 -0 0 0 0 0 1 1 1 1 1 1 1 2 2 2 2 2 2 2 2 2 2
-4 -4 -4 -4 -4 -3 -3 -3 -3 -3 -2 -2 -2 -2 -2 -2 -2 -2 -2 -1 -1 -1 -0 -0 -0 -0 -0 -0 -0 -0 -0 0 0 1 1 1 1 1 1 1 1 1 1
-5 -5 -5 -4 -4 -4 -4 -3 -3 -3 -3 -3 -3 -3 -2 -2 -2 -2 -2 -2 -2 -1 -1 -1 -1 -1 -1 -1 -1 -1 -1 -1 -0 -0 -0 0 0 1 1 1 1 1 1
-5 -5 -5 -5 -5 -4 -4 -4 -4 -4 -3 -3 -3 -3 -3 -3 -3 -3 -3 -2 -2 -2 -2 -1 -1 -1 -1 -1 -1 -1 -1 -1 -1 -1 -1 -1 -0 -0 0 0 0 0 0
-6 -6 -5 -5 -5 -5 -5 -5 -5 -4 -4 -4 -4 -4 -3 -3 -3 -3 -3 -3 -3 -2 -2 -2 -2 -2 -2 -2 -2 -2 -2 -2 -2 -1 -1 -1 -1 -1 -1 -0 -0 -0 -0
-6 -6 -6 -6 -6 -5 -5 -5 -5 -5 -5 -4 -4 -4 -4 -4 -4 -3 -3 -3 -3 -3 -3 -3 -3 -3 -3 -2 -2 -2 -2 -2 -2 -2 -2 -2 -1 -1 -1 -1 -1 -1 -1
Wind_Speed
2 3 3 3 3 3 3 3 2 2 2 2 2 3 3 4 5 6 5 6 6 6 7 8 8 8 8 9 9 9 9 9 8 8 9 9 9 9 9 8 8 8 8
3 3 2 3 3 3 3 3 2 2 1 2 2 3 3 3 4 5 5 5 5 6 6 7 8 8 8 9 9 9 9 8 8 8 8 8 8 8 7 8 7 7 7
3 2 2 2 3 3 3 3 2 2 1 2 2 2 3 2 3 3 5 5 5 6 6 6 7 7 8 8 9 9 8 8 7 8 8 7 7 7 7 6 6 6 6
2 2 1 1 2 2 2 1 0 1 1 1 1 1 2 2 2 2 3 4 5 5 5 5 5 7 7 7 8 8 8 7 7 7 7 7 7 6 6 6 6 5 5
2 2 1 1 2 1 1 1 0 0 0 1 1 1 1 1 1 2 3 4 4 5 5 5 6 5 6 7 7 7 7 6 6 6 6 6 6 5 5 5 5 5 5
1 1 1 1 2 1 1 1 0 0 0 0 0 1 1 0 1 2 2 3 3 4 5 5 6 5 5 5 6 7 7 6 5 5 5 5 5 5 4 4 4 3 3
1 0 1 1 1 1 1 1 0 0 0 0 1 1 1 1 2 2 2 2 2 4 5 6 6 5 5 4 5 5 6 6 5 5 4 4 5 4 4 4 3 2 2
1 1 0 1 1 1 1 0 0 1 1 1 1 1 0 1 1 2 2 2 3 3 4 5 5 5 5 5 5 6 5 5 5 5 4 4 4 4 4 3 3 2 1
1 1 1 1 1 1 1 1 1 1 2 2 1 1 2 2 1 1 3 3 3 3 3 4 5 5 5 5 5 5 5 5 6 5 4 4 4 4 4 3 3 2 1
2 2 1 2 1 1 1 2 2 1 2 2 1 1 1 1 1 1 1 2 4 4 4 4 5 5 5 5 5 6 6 5 6 5 5 4 4 4 3 3 3 2 2
2 2 2 2 2 1 2 2 2 2 2 2 2 2 1 1 1 2 2 2 2 2 3 4 4 5 5 5 4 5 6 6 7 6 5 4 3 4 3 3 3 2 1
1 2 2 2 2 2 2 3 3 3 3 3 3 2 2 2 2 2 2 2 2 2 2 3 4 4 5 5 5 5 6 6 6 6 5 5 4 3 4 3 3 3 2
2 2 2 2 2 3 3 3 3 3 4 4 4 4 3 3 2 2 2 2 2 1 1 2 4 5 5 5 5 6 7 7 6 6 6 5 4 3 3 3 4 3 2
3 3 3 3 4 4 4 3 3 4 3 4 5 5 4 4 3 2 3 2 2 2 2 3 2 4 4 4 5 6 6 7 7 6 6 6 5 5 4 3 3 4 3
3 4 4 4 5 5 5 4 4 5 4 5 5 5 4 4 3 3 3 3 4 3 4 3 2 3 3 3 4 5 5 7 8 8 7 7 6 6 5 4 4 4 4
4 4 5 4 4 4 5 4 4 5 5 5 5 5 5 4 4 3 4 3 3 4 4 2 2 2 2 3 4 4 5 7 8 9 8 7 7 7 6 6 5 5 5
4 5 5 5 5 5 5 5 5 5 6 6 6 6 6 5 5 4 4 4 3 3 5 3 1 1 2 3 3 4 5 6 8 9 9 8 8 8 7 7 6 6 6
4 4 5 5 5 5 5 6 6 6 6 7 6 6 6 6 6 5 5 5 4 4 5 5 3 2 2 4 4 4 4 5 6 8 9 9 8 9 9 8 7 7 7
4 4 4 5 5 5 5 6 6 6 6 7 7 7 7 6 7 6 6 5 5 5 4 5 4 3 3 3 3 3 4 4 5 6 8 9 9 9 9 9 8 7 7
4 4 5 5 5 5 6 6 6 6 6 7 7 7 7 7 8 7 6 6 6 5 5 5 4 3 3 3 3 4 3 3 4 4 6 8 9 9 9 9 9 8 8
5 5 5 5 5 5 5 6 5 6 7 7 7 7 7 8 10 8 7 7 7 6 5 5 4 3 3 4 4 3 4 3 3 3 3 4 5 6 8 9 9 9 9
4 5 5 5 5 6 7 8 7 6 6 7 7 7 7 8 10 11 11 10 9 8 7 6 5 6 5 5 3 3 3 2 3 3 2 4 4 5 6 8 9 10 10
4 5 5 5 5 6 8 8 9 6 6 7 7 7 6 7 9 7 8 10 10 11 10 7 7 7 6 6 5 5 5 4 4 3 2 4 4 5 5 8 10 10 10
4 4 5 5 5 6 9 9 9 7 6 7 8 8 8 7 8 8 7 7 7 7 9 8 7 7 6 6 6 6 5 3 2 3 3 4 3 4 4 6 9 10 10
4 4 5 4 4 6 9 9 8 5 6 7 7 7 8 8 10 11 8 8 7 6 7 8 9 9 9 8 6 3 3 4 4 3 3 3 2 2 3 4 7 9 9
4 4 5 4 4 5 7 7 7 4 5 5 6 7 9 10 11 11 9 8 9 7 5 5 5 6 7 7 9 7 6 6 3 3 3 3 2 1 2 2 3 4 7
Wind_Direction
32 35 36 25 27 16 6 10 27 19 21 55 77 66 66 83 103 106 109 120 128 138 148 148 146 141 137 136 130 125 119 115 112 110 110 106 101 99 98 96 93 90 89
36 26 23 21 17 7 3 2 17 12 17 55 67 67 61 70 91 111 121 127 133 134 140 152 149 146 144 146 143 136 131 126 121 118 118 113 105 102 101 98 95 93 90
31 29 22 11 356 353 359 6 18 30 26 38 58 63 63 62 76 108 130 135 140 144 141 141 150 146 145 151 149 144 138 130 128 127 125 120 113 106 101 102 99 94 89
13 27 17 345 334 352 13 341 25 10 358 19 47 53 58 56 79 99 120 131 139 144 150 151 148 150 148 146 149 146 143 139 135 133 132 128 121 113 105 101 95 93 86
0 20 358 335 324 359 360 292 356 54 15 19 54 50 61 21 82 99 106 114 125 133 139 158 160 148 145 152 155 149 142 141 138 136 138 141 136 130 119 110 100 93 86
328 358 345 339 332 294 296 297 16 21 213 238 49 40 38 319 106 105 123 119 128 139 140 146 151 156 150 154 157 156 151 147 147 141 141 144 142 145 140 129 120 110 97
301 356 302 331 330 275 260 251 183 141 345 57 83 42 346 255 196 162 138 131 143 149 149 149 145 147 154 165 168 165 160 156 157 153 154 158 160 159 154 148 145 135 121
310 297 33 274 298 278 275 259 127 220 253 210 151 146 167 269 240 195 173 178 174 150 148 153 151 153 157 158 175 176 171 166 167 165 163 170 175 176 169 167 164 164 161
284 281 249 251 262 269 239 238 228 199 222 252 217 173 172 206 213 211 197 191 186 180 164 157 160 164 163 156 164 170 177 185 180 181 177 179 186 187 187 189 190 178 156
253 259 241 237 236 245 249 243 229 235 208 230 255 273 222 182 175 200 233 206 194 187 188 176 168 171 170 160 165 174 180 190 188 186 187 189 195 198 204 205 196 191 189
237 235 243 241 234 241 243 246 236 235 227 223 232 246 259 278 255 179 220 223 220 211 192 185 174 169 172 170 167 172 182 190 196 194 194 199 199 204 208 212 212 211 214
260 232 237 239 233 234 233 243 244 239 235 232 231 227 218 210 212 196 211 210 216 226 208 195 182 173 170 169 170 170 177 185 192 191 191 201 206 210 214 213 215 220 230
260 240 246 244 242 238 231 235 238 241 235 227 226 230 230 230 224 220 209 225 248 251 206 212 191 177 173 173 180 181 184 184 190 198 197 199 201 212 222 225 224 224 232
253 248 240 235 237 239 239 239 246 238 237 229 232 229 228 229 225 219 206 199 233 261 231 214 192 169 172 178 187 180 188 190 198 205 208 205 206 215 225 228 233 230 234
259 245 243 240 238 231 228 232 243 234 232 231 228 225 225 225 221 222 217 200 196 223 237 221 196 192 179 181 187 186 193 201 208 210 214 213 211 215 219 220 228 235 238
257 250 248 241 241 237 231 230 239 235 230 239 232 224 226 220 216 217 216 223 215 214 237 232 223 198 195 206 198 202 211 209 214 216 216 217 214 212 213 217 226 235 240
257 254 253 245 244 242 237 231 236 236 229 237 236 225 225 217 214 216 213 219 226 219 235 255 259 205 194 199 201 213 219 217 219 219 219 219 217 215 214 219 226 234 236
260 259 259 255 248 243 240 232 236 240 228 228 231 225 223 221 215 216 214 218 225 221 221 235 247 223 221 207 199 206 219 222 221 221 219 219 220 218 217 221 226 233 235
273 270 261 252 250 243 242 240 237 241 233 227 227 226 223 218 219 219 215 219 224 229 219 216 237 234 222 212 205 214 214 221 221 220 220 222 223 222 222 223 224 228 232
275 270 264 257 254 247 243 242 241 237 233 229 228 228 224 220 219 216 218 219 221 221 214 206 221 234 219 208 203 206 213 213 217 230 233 229 226 226 229 227 226 226 229
273 271 267 262 259 253 245 240 239 234 229 229 229 229 228 221 222 222 222 214 213 216 209 206 213 228 226 202 210 212 219 228 226 221 213 227 231 232 235 231 227 226 231
276 272 266 261 256 254 258 255 248 240 232 230 232 231 233 226 224 230 233 233 227 218 208 207 217 215 225 221 214 219 214 221 240 212 203 234 234 228 234 232 233 233 236
279 273 269 266 262 259 260 260 252 248 234 231 229 228 233 230 224 218 228 233 238 238 227 215 210 215 218 216 210 215 216 218 239 223 218 236 221 230 241 236 231 234 237
285 279 278 277 270 266 264 261 259 250 239 234 230 225 225 227 227 217 216 222 225 230 226 220 213 218 221 215 211 215 220 230 248 239 217 236 225 236 248 244 235 235 239
290 284 282 278 275 275 268 264 260 243 236 235 234 228 224 225 232 226 214 214 222 228 231 226 224 225 229 229 223 204 208 218 247 247 215 211 228 244 239 238 240 230 234
290 293 292 289 279 280 277 270 259 237 237 238 233 230 231 228 233 229 211 208 218 221 212 219 224 226 225 226 225 214 208 215 233 242 214 198 218 202 251 243 230 235 247
Height
1515 1516 1517 1518 1519 1520 1522 1523 1525 1526 1528 1530 1532 1533 1535 1537 1538 1539 1541 1542 1544 1545 1546 1547 1549 1550 1551 1553 1554 1555 1556 1557 1558 1559 1560 1560 1561 1562 1562 1563 1564 1564 1565
1513 1514 1514 1515 1517 1518 1519 1521 1522 1524 1525 1527 1529 1531 1532 1534 1536 1537 1539 1540 1542 1543 1545 1546 1547 1549 1550 1551 1553 1554 1555 1556 1557 1558 1559 1560 1561 1561 1562 1563 1564 1564 1564
1510 1511 1512 1513 1514 1516 1517 1518 1519 1521 1523 1525 1526 1528 1530 1531 1533 1535 1537 1538 1540 1541 1543 1544 1546 1547 1548 1550 1551 1552 1553 1554 1556 1557 1558 1559 1560 1561 1562 1562 1563 1563 1564
1507 1508 1509 1510 1512 1513 1514 1516 1517 1518 1520 1522 1523 1525 1527 1529 1531 1532 1534 1536 1537 1539 1540 1542 1544 1545 1546 1548 1549 1550 1552 1553 1554 1555 1556 1557 1558 1559 1560 1561 1562 1562 1563
1504 1505 1506 1508 1509 1510 1511 1513 1514 1516 1517 1519 1520 1522 1524 1526 1527 1529 1531 1533 1534 1536 1538 1540 1541 1543 1544 1546 1547 1549 1550 1551 1552 1553 1555 1556 1557 1558 1559 1560 1560 1561 1561
1501 1502 1503 1504 1506 1507 1508 1510 1511 1513 1515 1516 1517 1519 1521 1523 1525 1526 1528 1530 1532 1533 1535 1537 1538 1540 1542 1543 1545 1547 1548 1549 1550 1551 1553 1554 1555 1556 1557 1558 1559 1559 1560
1498 1499 1500 1501 1503 1504 1505 1507 1508 1509 1512 1513 1515 1516 1518 1520 1521 1523 1525 1527 1529 1530 1532 1534 1536 1537 1539 1541 1542 1544 1546 1547 1548 1549 1550 1552 1553 1554 1555 1556 1557 1557 1558
1495 1496 1497 1498 1499 1501 1502 1503 1505 1506 1508 1510 1512 1514 1515 1518 1517 1519 1521 1524 1525 1527 1529 1531 1532 1534 1536 1537 1539 1541 1543 1544 1545 1547 1548 1549 1550 1552 1553 1553 1554 1555 1555
1491 1492 1493 1494 1496 1497 1498 1500 1502 1503 1505 1507 1509 1511 1513 1513 1514 1516 1518 1520 1522 1523 1525 1527 1529 1531 1532 1534 1536 1538 1539 1541 1542 1544 1545 1546 1548 1549 1550 1551 1552 1552 1553
1488 1489 1489 1491 1492 1493 1494 1496 1498 1500 1502 1503 1505 1507 1509 1510 1511 1512 1514 1516 1518 1520 1521 1523 1525 1527 1529 1531 1532 1534 1536 1537 1539 1541 1542 1543 1545 1546 1547 1548 1549 1549 1550
1483 1485 1486 1487 1488 1489 1491 1492 1494 1496 1498 1499 1501 1503 1505 1507 1508 1509 1510 1512 1514 1515 1517 1519 1522 1523 1525 1527 1529 1530 1532 1534 1536 1537 1538 1540 1541 1543 1544 1545 1545 1546 1547
1479 1481 1482 1483 1484 1485 1487 1488 1490 1492 1494 1495 1497 1499 1501 1503 1503 1505 1507 1508 1509 1511 1513 1515 1518 1519 1521 1523 1525 1526 1528 1530 1532 1534 1535 1536 1538 1539 1540 1541 1542 1543 1543
1475 1476 1477 1479 1480 1481 1483 1484 1486 1487 1489 1491 1493 1495 1497 1498 1500 1502 1503 1504 1506 1507 1509 1511 1513 1515 1517 1519 1521 1522 1524 1526 1528 1530 1531 1532 1534 1535 1536 1537 1538 1539 1540
1471 1472 1473 1474 1476 1477 1478 1480 1481 1482 1484 1486 1488 1490 1492 1494 1496 1498 1499 1501 1503 1504 1505 1506 1509 1511 1512 1514 1516 1518 1520 1522 1523 1525 1527 1528 1529 1531 1532 1533 1534 1535 1535
1467 1468 1469 1470 1471 1472 1474 1475 1476 1477 1479 1481 1483 1485 1487 1489 1491 1493 1495 1497 1499 1499 1500 1501 1504 1506 1508 1510 1512 1513 1515 1517 1519 1521 1523 1524 1525 1527 1528 1529 1530 1531 1531
1463 1464 1464 1465 1466 1467 1469 1470 1471 1472 1474 1476 1478 1480 1481 1483 1485 1487 1489 1492 1494 1495 1495 1496 1498 1500 1503 1505 1507 1509 1510 1512 1514 1516 1518 1519 1520 1522 1523 1524 1525 1526 1527
1458 1459 1460 1460 1461 1462 1464 1465 1466 1467 1468 1470 1472 1474 1476 1478 1480 1482 1484 1486 1488 1491 1491 1491 1494 1495 1497 1500 1502 1504 1506 1507 1509 1511 1513 1514 1515 1517 1518 1519 1520 1521 1522
1454 1454 1455 1455 1456 1457 1458 1459 1460 1462 1463 1464 1467 1469 1471 1473 1474 1477 1479 1480 1483 1485 1487 1487 1488 1490 1492 1494 1496 1498 1500 1502 1503 1505 1507 1509 1510 1512 1513 1514 1515 1516 1517
1449 1449 1449 1450 1451 1452 1453 1454 1455 1456 1457 1459 1461 1463 1465 1467 1469 1471 1473 1475 1477 1480 1482 1483 1483 1485 1487 1489 1491 1493 1495 1496 1498 1500 1501 1503 1505 1506 1508 1509 1510 1511 1512
1444 1444 1444 1445 1445 1446 1447 1449 1450 1451 1452 1453 1455 1457 1459 1461 1463 1465 1467 1469 1472 1474 1476 1477 1478 1480 1481 1483 1486 1487 1489 1491 1492 1494 1496 1498 1500 1501 1502 1504 1505 1506 1506
1439 1439 1439 1439 1440 1441 1442 1443 1444 1445 1446 1447 1449 1451 1453 1455 1457 1459 1461 1464 1466 1468 1470 1471 1472 1474 1476 1478 1480 1481 1483 1484 1486 1488 1490 1492 1493 1495 1497 1498 1499 1500 1501
1435 1435 1434 1434 1435 1435 1436 1437 1439 1439 1440 1442 1443 1445 1447 1449 1451 1454 1456 1458 1460 1462 1464 1465 1467 1468 1470 1472 1475 1476 1477 1479 1480 1482 1484 1485 1487 1488 1490 1492 1493 1495 1496
1430 1430 1430 1430 1430 1430 1431 1432 1433 1433 1434 1436 1437 1439 1441 1443 1445 1448 1450 1452 1454 1456 1459 1460 1461 1463 1465 1467 1469 1471 1472 1473 1474 1476 1478 1479 1481 1482 1484 1486 1487 1489 1490
1426 1426 1425 1425 1425 1425 1426 1426 1427 1428 1428 1430 1431 1433 1435 1437 1439 1442 1444 1446 1448 1450 1452 1454 1456 1458 1461 1463 1464 1466 1467 1468 1469 1471 1472 1473 1474 1476 1478 1480 1481 1483 1484
1422 1422 1421 1421 1421 1420 1421 1421 1422 1422 1422 1423 1425 1427 1429 1431 1433 1436 1438 1440 1442 1444 1446 1448 1450 1453 1455 1457 1459 1461 1462 1463 1463 1464 1466 1467 1468 1471 1472 1473 1475 1477 1478
1419 1418 1418 1418 1417 1416 1416 1417 1417 1417 1417 1418 1419 1421 1423 1425 1428 1430 1432 1434 1435 1437 1440 1442 1444 1446 1448 1451 1453 1455 1456 1458 1458 1459 1460 1462 1463 1465 1466 1467 1469 1471 1472